TimeHST,TemperatureF,Dew PointF,Humidity,Sea Level PressureIn,VisibilityMPH,Wind Direction,Wind SpeedMPH,Gust SpeedMPH,PrecipitationIn,Events,Conditions,WindDirDegrees,DateUTC
12:26 AM,73.4,68.0,83,30.09,10.0,Calm,Calm,-,N/A,,Overcast,0,2013-11-16 10:26:00
12:56 AM,70.9,68.0,91,30.01,10.0,ENE,6.9,-,N/A,,Partly Cloudy,60,2013-11-16 10:56:00
1:56 AM,70.0,68.0,93,29.99,10.0,NE,8.1,-,N/A,,Clear,40,2013-11-16 11:56:00
2:56 AM,70.9,68.0,91,29.98,10.0,NE,6.9,-,N/A,,Clear,40,2013-11-16 12:56:00
3:56 AM,70.0,68.0,93,29.99,10.0,East,9.2,-,N/A,,Clear,80,2013-11-16 13:56:00
4:56 AM,71.6,69.8,94,30.06,10.0,ESE,10.4,-,N/A,,Mostly Cloudy,110,2013-11-16 14:56:00
5:15 AM,71.6,69.8,94,30.06,10.0,ESE,13.8,-,N/A,,Overcast,110,2013-11-16 15:15:00
5:25 AM,71.6,68.0,88,30.06,10.0,ESE,11.5,-,N/A,,Overcast,110,2013-11-16 15:25:00
5:56 AM,70.9,65.8,84,30.01,10.0,ESE,11.5,-,N/A,,Mostly Cloudy,110,2013-11-16 15:56:00
6:14 AM,71.6,64.4,78,30.08,10.0,East,11.5,-,N/A,,Scattered Clouds,100,2013-11-16 16:14:00
6:56 AM,70.0,64.9,84,30.04,10.0,SE,10.4,-,N/A,,Clear,130,2013-11-16 16:56:00
7:56 AM,74.8,65.8,73,30.04,10.0,North,11.5,-,N/A,,Clear,360,2013-11-16 17:56:00
8:56 AM,77.9,68.0,71,30.04,10.0,NNE,10.4,-,N/A,,Clear,20,2013-11-16 18:56:00
9:56 AM,79.9,65.8,62,30.04,10.0,SE,8.1,-,N/A,,Clear,140,2013-11-16 19:56:00
10:56 AM,81.9,64.9,56,30.02,10.0,South,6.9,-,N/A,,Clear,170,2013-11-16 20:56:00
11:31 AM,82.4,66.2,58,30.08,10.0,NNE,5.8,-,N/A,,Mostly Cloudy,20,2013-11-16 21:31:00
11:56 AM,81.0,65.8,60,30.00,10.0,North,5.8,-,N/A,,Overcast,10,2013-11-16 21:56:00
12:56 PM,81.9,68.0,63,29.97,10.0,NNE,10.4,-,N/A,,Overcast,20,2013-11-16 22:56:00
1:56 PM,79.0,68.0,69,29.95,10.0,NNE,18.4,21.9,N/A,,Mostly Cloudy,30,2013-11-16 23:56:00
2:56 PM,79.9,66.9,64,29.94,10.0,NE,15.0,-,N/A,,Scattered Clouds,40,2013-11-17 00:56:00
3:56 PM,79.0,65.8,64,29.94,10.0,NE,13.8,21.9,N/A,,Clear,40,2013-11-17 01:56:00
4:38 PM,77.0,66.2,69,30.01,10.0,NE,10.4,-,N/A,,Mostly Cloudy,40,2013-11-17 02:38:00
4:56 PM,75.9,65.8,71,29.96,10.0,NE,8.1,-,N/A,,Overcast,50,2013-11-17 02:56:00
5:56 PM,73.9,65.8,76,29.98,10.0,East,4.6,-,N/A,,Overcast,90,2013-11-17 03:56:00
6:56 PM,72.9,66.9,82,30.01,10.0,NNE,9.2,-,N/A,,Overcast,30,2013-11-17 04:56:00
7:56 PM,72.9,66.9,82,30.02,10.0,Calm,Calm,-,N/A,,Overcast,0,2013-11-17 05:56:00
8:56 PM,72.9,65.8,79,30.02,10.0,SE,10.4,-,N/A,,Overcast,130,2013-11-17 06:56:00
9:47 PM,73.4,66.2,78,30.10,10.0,NE,4.6,-,N/A,,Overcast,50,2013-11-17 07:47:00
9:56 PM,72.0,65.8,81,30.03,10.0,ENE,5.8,-,N/A,,Overcast,60,2013-11-17 07:56:00
10:56 PM,72.9,64.9,76,30.02,10.0,East,4.6,-,N/A,,Overcast,90,2013-11-17 08:56:00
11:56 PM,68.9,63.9,84,30.01,10.0,ENE,3.5,-,N/A,,Clear,70,2013-11-17 09:56:00